N2YJJ-2 Weather Reports


Display with metric or nautical units.
time (UTC)temp
F
wind
direction
speed
MPH
gust
MPH
rain 1hr
in
rain 24hr
in
rain mn
in
humidity
%
barometer
mb
20210803194958 82 113 0.0 3.0 0.00 0.00 0.00 51 1023.2
20210803193958 81 84 1.0 3.0 0.00 0.00 0.00 53 1023.3
20210803192959 81 249 1.0 3.0 0.00 0.00 0.00 49 1023.4
20210803192458 80 349 1.0 3.0 0.00 0.00 0.00 52 1023.5
20210803191957 80 14 1.0 2.0 0.00 0.00 0.00 57 1023.6
20210803191457 80 48 1.0 2.0 0.00 0.00 0.00 57 1023.6
20210803190958 81 15 2.0 3.0 0.00 0.00 0.00 51 1023.6
20210803190458 81 21 1.0 3.0 0.00 0.00 0.00 53 1023.7
20210803185958 81 298 1.0 5.0 0.00 0.00 0.00 57 1023.7
20210803184957 82 319 2.0 5.0 0.00 0.00 0.00 57 1023.7
20210803184457 81 120 2.0 3.0 0.00 0.00 0.00 47 1023.8
20210803183459 80 189 0.0 3.0 0.00 0.00 0.00 52 1024.0
20210803182958 80 128 2.0 3.0 0.00 0.00 0.00 54 1024.0
20210803181957 79 283 1.0 2.0 0.00 0.00 0.00 59 1024.1
20210803181457 79 116 1.0 3.0 0.00 0.00 0.00 54 1024.1
20210803175459 80 338 1.0 3.0 0.00 0.00 0.00 53 1024.3
20210803174958 80 286 1.0 3.0 0.00 0.00 0.00 53 1024.4
20210803174458 80 7 2.0 3.0 0.00 0.00 0.00 56 1024.4
20210803173959 80 250 2.0 5.0 0.00 0.00 0.00 58 1024.4
20210803173459 80 4 1.0 3.0 0.00 0.00 0.00 57 1024.4
20210803172459 79 144 2.0 8.0 0.00 0.00 0.00 53 1024.5
20210803171958 79 49 1.0 2.0 0.00 0.00 0.00 60 1024.6
20210803170458 80 229 2.0 3.0 0.00 0.00 0.00 59 1024.7
20210803165958 80 306 2.0 3.0 0.00 0.00 0.00 60 1024.8
20210803164958 79 336 1.0 2.0 0.00 0.00 0.00 63 1024.8
20210803164459 78 0 2.0 3.0 0.00 0.00 0.00 61 1024.8
20210803163959 77 350 2.0 3.0 0.00 0.00 0.00 61 1024.9
20210803163000 75 5 1.0 3.0 0.00 0.00 0.00 70 1025.0
20210803162459 75 322 0.0 2.0 0.00 0.00 0.00 69 1025.0
20210803161958 75 285 1.0 2.0 0.00 0.00 0.00 67 1025.0
20210803161459 76 285 0.0 0.0 0.00 0.00 0.00 64 1025.0
20210803155958 78 270 1.0 2.0 0.00 0.00 0.00 60 1025.1
20210803155459 78 9 1.0 3.0 0.00 0.00 0.00 62 1025.1
20210803153459 78 68 1.0 2.0 0.00 0.00 0.00 60 1025.2
20210803152458 79 92 1.0 3.0 0.00 0.00 0.00 57 1025.3
20210803150459 78 174 1.0 3.0 0.00 0.00 0.00 60 1025.5
20210803145958 78 246 1.0 3.0 0.00 0.00 0.00 61 1025.5
20210803144958 77 225 2.0 3.0 0.00 0.00 0.00 57 1025.5
20210803144458 77 307 1.0 3.0 0.00 0.00 0.00 58 1025.5
20210803143958 77 103 1.0 3.0 0.00 0.00 0.00 61 1025.5
20210803143458 77 173 2.0 5.0 0.00 0.00 0.00 58 1025.4
20210803141958 76 294 1.0 3.0 0.00 0.00 0.00 61 1025.5
20210803135459 74 48 2.0 3.0 0.00 0.00 0.00 67 1025.4
20210803134959 73 128 1.0 3.0 0.00 0.00 0.00 69 1025.4
20210803134459 73 159 1.0 2.0 0.00 0.00 0.00 70 1025.4
20210803133958 72 206 1.0 3.0 0.00 0.00 0.00 71 1025.5
20210803132959 71 266 1.0 3.0 0.00 0.00 0.00 76 1025.5
20210803132459 70 200 0.0 2.0 0.00 0.00 0.00 78 1025.5
20210803131958 69 165 1.0 2.0 0.00 0.00 0.00 78 1025.5
20210803131458 69 305 1.0 2.0 0.00 0.00 0.00 78 1025.5
20210803130959 68 242 2.0 3.0 0.00 0.00 0.00 82 1025.5
20210803130459 67 227 1.0 3.0 0.00 0.00 0.00 84 1025.4
20210803125959 67 316 1.0 3.0 0.00 0.00 0.00 87 1025.4
20210803125459 66 235 0.0 2.0 0.00 0.00 0.00 87 1025.3
20210803124959 65 265 1.0 2.0 0.00 0.00 0.00 89 1025.3
20210803123959 63 120 1.0 3.0 0.00 0.00 0.00 92 1025.3
20210803123458 63 214 1.0 2.0 0.00 0.00 0.00 93 1025.3
20210803121459 60 223 0.0 0.0 0.00 0.00 0.00 99 1025.3
20210803115959 58 296 0.0 1.0 0.00 0.00 0.00 99 1025.2
20210803114958 57 183 0.0 0.0 0.00 0.00 0.00 98 1025.1
20210803113959 55 183 0.0 1.0 0.00 0.00 0.00 98 1025.1
20210803112958 55 183 0.0 0.0 0.00 0.00 0.00 98 1025.0
20210803111959 54 183 0.0 0.0 0.00 0.00 0.00 98 1024.8
20210803105459 53 184 0.0 0.0 0.00 0.00 0.00 97 1024.9
20210803103959 53 186 0.0 0.0 0.00 0.00 0.00 97 1024.8
20210803102959 53 186 0.0 0.0 0.00 0.00 0.00 97 1024.8
20210803100458 53 190 0.0 0.0 0.00 0.00 0.00 97 1024.7
20210803095959 53 190 0.0 0.0 0.00 0.00 0.00 97 1024.6
20210803094959 54 190 0.0 0.0 0.00 0.00 0.00 97 1024.5
20210803094459 54 190 0.0 0.0 0.00 0.00 0.00 97 1024.6
20210803093959 54 190 0.0 0.0 0.00 0.00 0.00 97 1024.6
20210803093459 54 190 0.0 0.0 0.00 0.00 0.00 97 1024.7
20210803091959 54 190 0.0 0.0 0.00 0.00 0.00 97 1024.7
20210803091459 54 190 0.0 0.0 0.00 0.00 0.00 96 1024.6
20210803085959 54 190 0.0 0.0 0.00 0.00 0.00 96 1024.6
20210803085459 54 190 0.0 0.0 0.00 0.00 0.00 96 1024.6
20210803084000 54 190 0.0 0.0 0.00 0.00 0.00 96 1024.6
20210803083459 54 190 0.0 0.0 0.00 0.00 0.00 96 1024.6
20210803082959 54 190 0.0 0.0 0.00 0.00 0.00 96 1024.6
20210803081459 54 190 0.0 0.0 0.00 0.00 0.00 97 1024.6
20210803080959 54 190 0.0 0.0 0.00 0.00 0.00 96 1024.6
20210803080000 54 190 0.0 0.0 0.00 0.00 0.00 96 1024.5
20210803074459 54 190 0.0 0.0 0.00 0.00 0.00 97 1024.5
20210803073959 54 190 0.0 0.0 0.00 0.00 0.00 96 1024.4
20210803073500 54 190 0.0 0.0 0.00 0.00 0.00 96 1024.4
20210803072459 54 190 0.0 0.0 0.00 0.00 0.00 96 1024.3
20210803071959 54 190 0.0 0.0 0.00 0.00 0.00 96 1024.3
20210803070500 54 190 0.0 0.0 0.00 0.00 0.00 96 1024.3
20210803065459 54 190 0.0 0.0 0.00 0.00 0.00 96 1024.4
20210803063959 54 190 0.0 0.0 0.00 0.00 0.00 96 1024.5
20210803062459 54 190 0.0 0.0 0.00 0.00 0.00 95 1024.5
20210803060959 54 190 0.0 0.0 0.00 0.00 0.00 95 1024.5
20210803060459 55 190 0.0 0.0 0.00 0.00 0.00 95 1024.6
20210803060000 55 190 0.0 0.0 0.00 0.00 0.00 95 1024.5
20210803054959 55 190 0.0 0.0 0.00 0.00 0.00 95 1024.7
20210803054459 55 190 0.0 0.0 0.00 0.00 0.00 95 1024.6
20210803054001 55 190 0.0 0.0 0.00 0.00 0.00 95 1024.7
20210803052959 55 190 0.0 0.0 0.00 0.00 0.00 94 1024.8
20210803052459 55 190 0.0 0.0 0.00 0.00 0.00 94 1024.8
20210803051959 55 190 0.0 0.0 0.00 0.00 0.00 94 1024.9
20210803045959 55 190 0.0 0.0 0.00 0.00 0.00 94 1025.0
20210803044459 55 190 0.0 0.0 0.00 0.00 0.00 94 1024.9
20210803043959 55 190 0.0 0.0 0.00 0.00 0.00 94 1024.9
20210803043500 55 190 0.0 0.0 0.00 0.00 0.00 94 1024.9
20210803043000 55 190 0.0 0.0 0.00 0.00 0.00 94 1024.9
20210803042459 55 190 0.0 0.0 0.00 0.00 0.00 94 1024.7
20210803042000 56 190 0.0 0.0 0.00 0.00 0.00 94 1024.7
20210803041500 56 190 0.0 0.0 0.00 0.00 0.00 94 1024.7
20210803035459 56 190 0.0 0.0 0.00 0.00 0.00 93 1024.5
20210803033959 56 190 0.0 0.0 0.00 0.00 0.00 92 1024.4
20210803032000 57 190 0.0 0.0 0.00 0.00 0.00 92 1024.2
20210803031500 57 190 0.0 0.0 0.00 0.00 0.00 92 1024.2
20210803030000 57 190 0.0 0.0 0.00 0.00 0.00 91 1024.2
20210803024959 57 190 0.0 0.0 0.00 0.00 0.00 91 1024.1
20210803024459 57 190 0.0 0.0 0.00 0.00 0.00 90 1024.1
20210803024000 57 190 0.0 0.0 0.00 0.00 0.00 90 1024.2
20210803023459 58 190 0.0 0.0 0.00 0.00 0.00 90 1024.3
20210803022500 58 190 0.0 0.0 0.00 0.00 0.00 89 1024.2
20210803021959 58 190 0.0 0.0 0.00 0.00 0.00 89 1024.1
20210803021459 58 190 0.0 0.0 0.00 0.00 0.00 89 1024.0
20210803015959 59 153 0.0 0.0 0.00 0.00 0.00 88 1023.9
20210803015459 59 153 0.0 0.0 0.00 0.00 0.00 87 1024.0
20210803015000 60 153 0.0 0.0 0.00 0.00 0.00 86 1023.9
20210803014500 60 153 0.0 0.0 0.00 0.02 0.00 87 1024.0
20210803013959 60 153 0.0 0.0 0.00 0.05 0.00 86 1024.0
20210803013000 61 153 0.0 0.0 0.00 0.07 0.00 85 1024.0
20210803011501 62 153 0.0 0.0 0.00 0.07 0.00 80 1023.7
20210803011000 62 153 0.0 0.0 0.00 0.07 0.00 81 1023.7
20210803010500 62 153 0.0 0.0 0.00 0.07 0.00 80 1023.6
20210803005500 63 153 0.0 0.0 0.00 0.07 0.00 78 1023.8
20210803004500 64 153 0.0 0.0 0.00 0.07 0.00 75 1023.6
20210803004000 64 153 0.0 0.0 0.00 0.07 0.00 74 1023.5
20210803003459 65 153 0.0 0.0 0.00 0.07 0.00 73 1023.6
20210803002959 65 153 0.0 0.0 0.00 0.07 0.00 73 1023.6
20210803002000 66 153 0.0 0.0 0.00 0.07 0.00 73 1023.6
20210803000501 67 153 0.0 0.0 0.00 0.07 0.00 69 1023.5
20210803000000 67 153 0.0 0.0 0.00 0.07 0.00 70 1023.4
20210802235500 68 153 0.0 0.0 0.00 0.07 0.00 70 1023.5
20210802235000 68 153 0.0 0.0 0.00 0.07 0.00 69 1023.5
20210802234000 68 153 0.0 0.0 0.00 0.07 0.00 67 1023.5
20210802233001 69 153 0.0 0.0 0.00 0.07 0.00 65 1023.5
20210802232000 69 153 0.0 0.0 0.00 0.07 0.00 65 1023.4
20210802231500 69 153 0.0 1.0 0.00 0.07 0.00 66 1023.4
20210802230000 70 56 0.0 0.0 0.00 0.07 0.00 64 1023.4
20210802224000 71 44 0.0 2.0 0.00 0.07 0.00 57 1023.4
20210802223500 72 242 1.0 2.0 0.00 0.07 0.00 60 1023.4
20210802223000 72 84 0.0 1.0 0.00 0.07 0.00 59 1023.4
20210802222000 73 230 1.0 2.0 0.00 0.07 0.00 56 1023.3
20210802214459 74 13 0.0 2.0 0.00 0.07 0.00 49 1023.3
20210802213500 75 327 1.0 1.0 0.00 0.07 0.00 53 1023.3
20210802213001 76 315 1.0 2.0 0.00 0.07 0.00 48 1023.4
20210802210500 77 77 1.0 3.0 0.00 0.07 0.00 53 1023.5
20210802210000 76 36 1.0 3.0 0.00 0.07 0.00 52 1023.6
20210802205500 77 17 1.0 3.0 0.00 0.07 0.00 52 1023.7
20210802204959 77 153 2.0 3.0 0.00 0.07 0.00 49 1023.6
20210802204000 76 246 0.0 3.0 0.00 0.07 0.00 53 1023.7
20210802203500 76 346 2.0 3.0 0.00 0.07 0.00 51 1023.6
20210802203001 76 11 2.0 5.0 0.00 0.07 0.00 50 1023.7
20210802202501 76 26 1.0 3.0 0.00 0.07 0.00 54 1023.8
20210802201501 76 288 1.0 3.0 0.00 0.07 0.00 51 1023.8
20210802200500 77 18 2.0 3.0 0.00 0.07 0.00 49 1023.7
20210802200001 78 36 2.0 5.0 0.00 0.07 0.00 49 1023.7